Location: Central Coast
(33.3208°S, 151.2336°E)
Time: 15:12:28
(UTC+11:00)

ISS - Pass Details

Date: 07 October 2017
Orbit: 401 x 408 km, 51.6° (Epoch: 23 October)

Event Time Altitude Azimuth Distance (km) Brightness Sun altitude
Exits shadow 03:55:26 12° 147° (SSE) 1,376 -0.5 -30.3°
Drops below altitude 10° 03:55:44 10° 146° (SE) 1,489 -0.2 -30.2°
Sets 03:57:53 0° 139° (SE) 2,354 1.1 -29.8°
